BEL270 EBBR-EGPH

Flight info

Callsign BEL270
Flight time 1h 14m
Altitude 38000
Route DENUT4G DENUT L610 NILON DCT WESUL M14 STOAT L613 LEHOC DCT INPIP/N0373F240 N601 TLA DCT
Aircraft A320/M-SDE3/L

Departure

Time 2026-04-24 18:56
Airport Brussels Airport (EBBR)

Arrival

Time 2026-04-24 20:10
Airport Edinburgh Airport (EGPH)
Time Latitude Longitude Altitude Speed Heading
2026-04-24 18:54 50.90824 4.49742 122 ft 32 kts 13°
2026-04-24 18:55 50.91126 4.49942 120 ft 11 kts 342°
2026-04-24 18:55 50.91137 4.49882 117 ft 3 kts 252°
2026-04-24 18:55 50.91107 4.49774 117 ft 28 kts 246°
2026-04-24 18:56 50.90917 4.49118 118 ft 99 kts 245°
2026-04-24 18:56 50.90550 4.47846 120 ft 152 kts 246°
2026-04-24 18:56 50.90058 4.46163 415 ft 172 kts 248°
2026-04-24 18:56 50.89809 4.44369 1102 ft 168 kts 287°
2026-04-24 18:57 50.90350 4.42755 1712 ft 174 kts 306°
2026-04-24 18:57 50.91023 4.41017 2024 ft 196 kts 302°
2026-04-24 18:57 50.91470 4.38825 2302 ft 224 kts 281°
2026-04-24 18:57 50.91735 4.36257 2709 ft 248 kts 280°
2026-04-24 18:58 50.92007 4.33443 3257 ft 265 kts 280°
2026-04-24 18:58 50.92286 4.30514 4133 ft 270 kts 282°
2026-04-24 18:58 50.92921 4.27735 5050 ft 270 kts 305°
2026-04-24 18:58 50.94052 4.25359 6006 ft 270 kts 309°
2026-04-24 18:59 50.95228 4.23012 6816 ft 274 kts 309°
2026-04-24 18:59 50.96422 4.20651 7109 ft 274 kts 309°
2026-04-24 18:59 50.97613 4.18292 7196 ft 274 kts 309°
2026-04-24 18:59 50.98807 4.15921 7227 ft 274 kts 309°
2026-04-24 19:00 50.99989 4.13562 7232 ft 273 kts 309°
2026-04-24 19:00 51.01173 4.11198 7253 ft 275 kts 309°
2026-04-24 19:00 51.02371 4.08798 8008 ft 278 kts 309°
2026-04-24 19:00 51.03566 4.06388 8974 ft 277 kts 309°
2026-04-24 19:01 51.04764 4.03970 9881 ft 280 kts 309°
2026-04-24 19:01 51.05968 4.01538 10494 ft 292 kts 309°
2026-04-24 19:01 51.07287 3.98875 10783 ft 314 kts 309°
2026-04-24 19:01 51.08689 3.96044 10976 ft 338 kts 309°
2026-04-24 19:02 51.09675 3.94055 11069 ft 353 kts 309°
2026-04-24 19:02 51.11767 3.89834 11613 ft 369 kts 308°
2026-04-24 19:02 51.13368 3.86598 12264 ft 374 kts 308°
2026-04-24 19:02 51.14985 3.83323 12930 ft 378 kts 308°
2026-04-24 19:03 51.16616 3.80016 13596 ft 382 kts 308°
2026-04-24 19:03 51.18263 3.76670 14248 ft 384 kts 308°
2026-04-24 19:03 51.19910 3.73312 14871 ft 386 kts 308°
2026-04-24 19:03 51.21573 3.69921 15420 ft 390 kts 308°
2026-04-24 19:04 51.23094 3.66331 15973 ft 392 kts 297°
2026-04-24 19:04 51.24079 3.62273 16506 ft 395 kts 284°
2026-04-24 19:04 51.24657 3.57971 17035 ft 398 kts 281°
2026-04-24 19:04 51.25225 3.53634 17585 ft 401 kts 281°
2026-04-24 19:05 51.25801 3.49272 18139 ft 403 kts 281°
2026-04-24 19:05 51.26383 3.44875 18671 ft 405 kts 281°
2026-04-24 19:05 51.26967 3.40463 19142 ft 407 kts 281°
2026-04-24 19:05 51.27544 3.36086 19621 ft 409 kts 281°
2026-04-24 19:06 51.28127 3.31623 20089 ft 411 kts 281°
2026-04-24 19:06 51.28706 3.27138 20560 ft 413 kts 281°
2026-04-24 19:06 51.29279 3.22636 21030 ft 415 kts 281°
2026-04-24 19:06 51.29852 3.18115 21486 ft 416 kts 280°
2026-04-24 19:07 51.30427 3.13569 21941 ft 417 kts 280°
2026-04-24 19:07 51.31003 3.09011 22376 ft 419 kts 280°
2026-04-24 19:07 51.31386 3.05980 22661 ft 420 kts 280°
2026-04-24 19:07 51.32161 2.99841 23231 ft 422 kts 280°
2026-04-24 19:08 51.32742 2.95232 23649 ft 424 kts 280°
2026-04-24 19:08 51.33324 2.90601 24022 ft 425 kts 280°
2026-04-24 19:08 51.33904 2.85949 24354 ft 427 kts 280°
2026-04-24 19:08 51.34480 2.81290 24686 ft 428 kts 280°
2026-04-24 19:09 51.35057 2.76612 25001 ft 430 kts 280°
2026-04-24 19:09 51.35639 2.71907 25297 ft 431 kts 280°
2026-04-24 19:09 51.36223 2.67200 25596 ft 433 kts 280°
2026-04-24 19:09 51.36809 2.62466 25881 ft 435 kts 280°
2026-04-24 19:10 51.37395 2.57711 26169 ft 436 kts 280°
2026-04-24 19:10 51.37982 2.52936 26455 ft 438 kts 280°
2026-04-24 19:10 51.38567 2.48151 26732 ft 439 kts 280°
2026-04-24 19:10 51.39149 2.43336 27006 ft 441 kts 280°
2026-04-24 19:11 51.39728 2.38507 27275 ft 442 kts 280°
2026-04-24 19:11 51.40306 2.33662 27564 ft 443 kts 280°
2026-04-24 19:11 51.40886 2.28807 27824 ft 444 kts 280°
2026-04-24 19:11 51.41471 2.23941 28125 ft 445 kts 280°
2026-04-24 19:12 51.42066 2.19078 28503 ft 444 kts 280°
2026-04-24 19:12 51.42663 2.14236 28873 ft 442 kts 280°
2026-04-24 19:12 51.43258 2.09397 29245 ft 441 kts 280°
2026-04-24 19:12 51.43844 2.04577 29621 ft 440 kts 280°
2026-04-24 19:13 51.44231 2.01386 29858 ft 440 kts 280°
2026-04-24 19:13 51.45002 1.94961 30359 ft 439 kts 280°
2026-04-24 19:13 51.45560 1.90219 30666 ft 438 kts 280°
2026-04-24 19:13 51.46127 1.85360 30988 ft 437 kts 280°
2026-04-24 19:14 51.46679 1.80596 31443 ft 432 kts 280°
2026-04-24 19:14 51.47223 1.75878 31815 ft 430 kts 280°
2026-04-24 19:14 51.47765 1.71153 32087 ft 431 kts 280°
2026-04-24 19:14 51.48304 1.66420 32315 ft 432 kts 279°
2026-04-24 19:15 51.48846 1.61680 32530 ft 433 kts 280°
2026-04-24 19:15 51.49391 1.56918 32745 ft 435 kts 280°
2026-04-24 19:15 51.49936 1.52137 32952 ft 436 kts 279°
2026-04-24 19:15 51.50479 1.47348 33156 ft 437 kts 279°
2026-04-24 19:16 51.51557 1.37755 33892 ft 433 kts 279°
2026-04-24 19:16 51.52086 1.33008 34218 ft 432 kts 279°
2026-04-24 19:16 51.52616 1.28261 34429 ft 433 kts 279°
2026-04-24 19:17 51.53145 1.23493 34614 ft 434 kts 279°
2026-04-24 19:17 51.53674 1.18716 34793 ft 435 kts 279°
2026-04-24 19:17 51.54202 1.13919 34976 ft 437 kts 279°
2026-04-24 19:17 51.54729 1.09108 35192 ft 437 kts 279°
2026-04-24 19:18 51.55242 1.04406 35648 ft 431 kts 279°
2026-04-24 19:18 51.55754 0.99668 35909 ft 430 kts 279°
2026-04-24 19:18 51.56266 0.94927 36095 ft 431 kts 279°
2026-04-24 19:18 51.56787 0.90105 36241 ft 433 kts 279°
2026-04-24 19:19 51.57295 0.85390 36408 ft 434 kts 279°
2026-04-24 19:19 51.57813 0.80546 36582 ft 435 kts 279°
2026-04-24 19:19 51.58322 0.75752 36734 ft 436 kts 279°
2026-04-24 19:19 51.58832 0.70947 36889 ft 436 kts 279°
2026-04-24 19:20 51.59529 0.66257 37057 ft 437 kts 288°
2026-04-24 19:20 51.60762 0.61780 37240 ft 439 kts 298°
2026-04-24 19:20 51.62492 0.57727 37414 ft 442 kts 307°
2026-04-24 19:20 51.64434 0.53884 37598 ft 442 kts 307°
2026-04-24 19:21 51.66377 0.50047 37767 ft 442 kts 308°
2026-04-24 19:21 51.68550 0.46539 38026 ft 442 kts 316°
2026-04-24 19:21 51.70867 0.43288 38250 ft 439 kts 316°
2026-04-24 19:21 51.73157 0.40055 38270 ft 437 kts 316°
2026-04-24 19:22 51.77704 0.33582 38286 ft 436 kts 316°
2026-04-24 19:22 51.82242 0.27094 38277 ft 434 kts 316°
2026-04-24 19:23 51.86763 0.20637 38274 ft 433 kts 316°
2026-04-24 19:23 51.90516 0.15276 38274 ft 433 kts 316°
2026-04-24 19:24 51.95787 0.07722 38275 ft 433 kts 316°
2026-04-24 19:24 52.00288 0.01237 38275 ft 433 kts 316°
2026-04-24 19:25 52.05224 -0.04409 38267 ft 438 kts 329°
2026-04-24 19:25 52.10593 -0.09093 38269 ft 438 kts 329°
2026-04-24 19:26 52.15961 -0.13784 38267 ft 438 kts 329°
2026-04-24 19:26 52.21324 -0.18491 38272 ft 438 kts 328°
2026-04-24 19:27 52.26685 -0.23219 38273 ft 438 kts 328°
2026-04-24 19:27 52.32003 -0.27931 38294 ft 437 kts 329°
2026-04-24 19:28 52.37344 -0.32684 38290 ft 437 kts 329°
2026-04-24 19:28 52.41814 -0.36660 38291 ft 437 kts 329°
2026-04-24 19:29 52.49833 -0.43801 38279 ft 438 kts 329°
2026-04-24 19:30 52.55194 -0.48587 38291 ft 439 kts 329°
2026-04-24 19:30 52.60554 -0.53400 38291 ft 439 kts 329°
2026-04-24 19:31 52.65911 -0.58234 38291 ft 439 kts 329°
2026-04-24 19:31 52.71261 -0.63065 38291 ft 439 kts 329°
2026-04-24 19:32 52.76618 -0.67899 38310 ft 439 kts 329°
2026-04-24 19:32 52.81966 -0.72758 38301 ft 439 kts 329°
2026-04-24 19:33 52.87319 -0.77630 38296 ft 439 kts 329°
2026-04-24 19:33 52.92674 -0.82517 38296 ft 439 kts 329°
2026-04-24 19:34 52.98027 -0.87428 38292 ft 439 kts 329°
2026-04-24 19:34 53.03379 -0.92343 38291 ft 440 kts 329°
2026-04-24 19:35 53.08739 -0.97270 38278 ft 441 kts 329°
2026-04-24 19:35 53.14113 -1.02223 38258 ft 442 kts 329°
2026-04-24 19:36 53.19488 -1.07188 38277 ft 442 kts 329°
2026-04-24 19:36 53.24832 -1.12149 38303 ft 442 kts 329°
2026-04-24 19:37 53.30211 -1.17163 38298 ft 443 kts 330°
2026-04-24 19:37 53.35590 -1.22192 38296 ft 443 kts 330°
2026-04-24 19:38 53.40969 -1.27211 38294 ft 442 kts 330°
2026-04-24 19:38 53.46343 -1.32238 38292 ft 442 kts 330°
2026-04-24 19:39 53.51710 -1.37313 38288 ft 442 kts 329°
2026-04-24 19:39 53.57065 -1.42399 38288 ft 442 kts 329°
2026-04-24 19:40 53.62422 -1.47491 38289 ft 442 kts 329°
2026-04-24 19:40 53.67783 -1.52582 38289 ft 442 kts 329°
2026-04-24 19:41 53.73109 -1.57790 38285 ft 441 kts 324°
2026-04-24 19:41 53.77755 -1.64534 38287 ft 441 kts 317°
2026-04-24 19:42 53.82293 -1.71520 38287 ft 441 kts 317°
2026-04-24 19:42 53.87260 -1.77588 38286 ft 441 kts 326°
2026-04-24 19:43 53.92440 -1.83209 38287 ft 442 kts 326°
2026-04-24 19:43 53.97621 -1.88844 38286 ft 442 kts 326°
2026-04-24 19:44 54.02793 -1.94496 38297 ft 442 kts 327°
2026-04-24 19:44 54.07954 -2.00161 38295 ft 441 kts 327°
2026-04-24 19:45 54.13121 -2.05821 38292 ft 441 kts 327°
2026-04-24 19:45 54.15701 -2.08650 37990 ft 441 kts 327°
2026-04-24 19:45 54.18260 -2.11463 37541 ft 435 kts 327°
2026-04-24 19:45 54.20799 -2.14256 37093 ft 432 kts 326°
2026-04-24 19:46 54.23311 -2.17029 36685 ft 428 kts 326°
2026-04-24 19:46 54.25800 -2.19783 36268 ft 424 kts 326°
2026-04-24 19:46 54.28265 -2.22524 35860 ft 421 kts 326°
2026-04-24 19:46 54.30743 -2.25287 35467 ft 430 kts 326°
2026-04-24 19:47 54.33257 -2.28091 35070 ft 431 kts 326°
2026-04-24 19:47 54.35766 -2.30887 34684 ft 429 kts 326°
2026-04-24 19:47 54.38259 -2.33667 34296 ft 426 kts 326°
2026-04-24 19:47 54.40735 -2.36432 33866 ft 423 kts 326°
2026-04-24 19:48 54.43200 -2.39187 33431 ft 421 kts 326°
2026-04-24 19:48 54.45650 -2.41929 33006 ft 420 kts 326°
2026-04-24 19:48 54.50526 -2.47402 32176 ft 418 kts 327°
2026-04-24 19:49 54.55506 -2.53007 31371 ft 445 kts 327°
2026-04-24 19:49 54.60764 -2.58946 30534 ft 454 kts 327°
2026-04-24 19:50 54.68719 -2.67968 29133 ft 460 kts 327°
2026-04-24 19:50 54.71386 -2.71005 28641 ft 457 kts 326°
2026-04-24 19:51 54.76745 -2.77122 27481 ft 464 kts 326°
2026-04-24 19:51 54.79434 -2.80190 26908 ft 462 kts 326°
2026-04-24 19:52 54.84771 -2.86303 25805 ft 459 kts 326°
2026-04-24 19:52 54.87508 -2.89348 25258 ft 473 kts 331°
2026-04-24 19:52 54.90509 -2.91707 24680 ft 474 kts 337°
2026-04-24 19:52 54.93546 -2.93910 24117 ft 472 kts 338°
2026-04-24 19:53 54.96572 -2.96090 23497 ft 469 kts 338°
2026-04-24 19:53 54.99573 -2.98250 22856 ft 464 kts 337°
2026-04-24 19:53 55.05480 -3.02518 21586 ft 455 kts 337°
2026-04-24 19:54 55.08397 -3.04647 20971 ft 452 kts 337°
2026-04-24 19:54 55.11275 -3.06758 20371 ft 448 kts 337°
2026-04-24 19:54 55.14142 -3.08859 19770 ft 444 kts 337°
2026-04-24 19:54 55.16989 -3.10940 19188 ft 441 kts 337°
2026-04-24 19:55 55.18855 -3.12304 18819 ft 439 kts 337°
2026-04-24 19:55 55.22609 -3.15056 17999 ft 434 kts 336°
2026-04-24 19:55 55.25375 -3.17088 17350 ft 429 kts 336°
2026-04-24 19:55 55.28123 -3.19072 16738 ft 424 kts 340°
2026-04-24 19:56 55.30990 -3.20092 16127 ft 420 kts 357°
2026-04-24 19:56 55.33896 -3.19840 15528 ft 417 kts
2026-04-24 19:56 55.36775 -3.19410 14940 ft 413 kts
2026-04-24 19:56 55.39624 -3.18957 14364 ft 409 kts
2026-04-24 19:57 55.42411 -3.18650 13775 ft 405 kts
2026-04-24 19:57 55.45203 -3.18267 13126 ft 401 kts
2026-04-24 19:57 55.47945 -3.17833 12503 ft 379 kts
2026-04-24 19:57 55.50502 -3.17395 11898 ft 359 kts
2026-04-24 19:58 55.52910 -3.16977 11309 ft 348 kts
2026-04-24 19:58 55.55298 -3.16565 10720 ft 343 kts
2026-04-24 19:58 55.57675 -3.16166 10145 ft 343 kts
2026-04-24 19:58 55.60074 -3.15770 9508 ft 341 kts
2026-04-24 19:59 55.62435 -3.15384 8880 ft 340 kts
2026-04-24 19:59 55.64769 -3.14976 8432 ft 333 kts
2026-04-24 19:59 55.67057 -3.14867 7971 ft 326 kts 351°
2026-04-24 19:59 55.69091 -3.16176 7672 ft 306 kts 327°
2026-04-24 20:00 55.70600 -3.18708 7025 ft 297 kts 303°
2026-04-24 20:00 55.71333 -3.22072 6311 ft 294 kts 277°
2026-04-24 20:00 55.71378 -3.25711 6063 ft 299 kts 270°
2026-04-24 20:00 55.71329 -3.29411 5992 ft 300 kts 270°
2026-04-24 20:01 55.71271 -3.33111 5999 ft 300 kts 270°
2026-04-24 20:01 55.71213 -3.36815 5998 ft 299 kts 269°
2026-04-24 20:01 55.71160 -3.40354 5996 ft 274 kts 269°
2026-04-24 20:01 55.71109 -3.43703 6006 ft 271 kts 270°
2026-04-24 20:02 55.71074 -3.45958 6005 ft 270 kts 269°
2026-04-24 20:02 55.71005 -3.50346 6003 ft 269 kts 269°
2026-04-24 20:02 55.70952 -3.53662 5998 ft 269 kts 269°
2026-04-24 20:02 55.70898 -3.56979 5998 ft 269 kts 269°
2026-04-24 20:03 55.70844 -3.60291 6005 ft 269 kts 269°
2026-04-24 20:03 55.70789 -3.63603 6004 ft 269 kts 269°
2026-04-24 20:03 55.70771 -3.66915 6002 ft 268 kts 277°
2026-04-24 20:03 55.71376 -3.69985 6002 ft 265 kts 305°
2026-04-24 20:04 55.72691 -3.72176 5999 ft 253 kts 326°
2026-04-24 20:04 55.74153 -3.73785 5848 ft 244 kts 329°
2026-04-24 20:04 55.75586 -3.75286 5610 ft 234 kts 329°
2026-04-24 20:04 55.76979 -3.76737 5169 ft 231 kts 329°
2026-04-24 20:05 55.78456 -3.77793 4680 ft 230 kts 354°
2026-04-24 20:05 55.80023 -3.77435 4208 ft 229 kts 19°
2026-04-24 20:05 55.81402 -3.76072 3997 ft 229 kts 39°
2026-04-24 20:05 55.82458 -3.73938 4006 ft 232 kts 57°
2026-04-24 20:06 55.83302 -3.71482 4003 ft 233 kts 58°
2026-04-24 20:06 55.84151 -3.69009 3947 ft 235 kts 58°
2026-04-24 20:06 55.85003 -3.66530 3691 ft 233 kts 58°
2026-04-24 20:06 55.85848 -3.64068 3401 ft 233 kts 58°
2026-04-24 20:07 55.86405 -3.62443 3188 ft 232 kts 58°
2026-04-24 20:07 55.87242 -3.60000 2872 ft 228 kts 58°
2026-04-24 20:07 55.88054 -3.57629 2560 ft 220 kts 58°
2026-04-24 20:07 55.89086 -3.54611 2190 ft 211 kts 58°
2026-04-24 20:08 55.89594 -3.53126 2027 ft 204 kts 58°
2026-04-24 20:08 55.90311 -3.51025 1750 ft 190 kts 58°
2026-04-24 20:08 55.90960 -3.49121 1492 ft 171 kts 58°
2026-04-24 20:08 55.91542 -3.47414 1275 ft 154 kts 58°
2026-04-24 20:09 55.92074 -3.45832 1095 ft 145 kts 58°
2026-04-24 20:09 55.92608 -3.44340 884 ft 137 kts 57°
2026-04-24 20:09 55.93088 -3.42868 747 ft 137 kts 61°
2026-04-24 20:09 55.93573 -3.41427 583 ft 134 kts 57°
2026-04-24 20:10 55.94063 -3.40018 319 ft 132 kts 58°
2026-04-24 20:10 55.94531 -3.38631 138 ft 130 kts 58°
2026-04-24 20:10 55.94950 -3.37399 111 ft 93 kts 59°
2026-04-24 20:10 55.95197 -3.36670 113 ft 44 kts 59°
2026-04-24 20:11 55.95258 -3.36414 111 ft 12 kts 126°
2026-04-24 20:11 55.95201 -3.36356 113 ft 5 kts 152°
2026-04-24 20:11 55.95177 -3.36333 115 ft 3 kts 150°
2026-04-24 20:11 55.95176 -3.36332 115 ft 0 kts 150°
2026-04-24 20:12 55.95143 -3.36276 116 ft 15 kts 111°
2026-04-24 20:12 55.95109 -3.36083 114 ft 17 kts 110°
2026-04-24 20:13 55.95059 -3.35881 114 ft 17 kts 117°
2026-04-24 20:13 55.94980 -3.35860 114 ft 12 kts 199°
2026-04-24 20:13 55.94916 -3.35805 112 ft 10 kts 121°
2026-04-24 20:13 55.94886 -3.35709 115 ft 7 kts 119°
2026-04-24 20:14 55.94874 -3.35671 113 ft 3 kts 118°
2026-04-24 20:14 55.94862 -3.35633 113 ft 4 kts 123°
2026-04-24 20:14 55.94852 -3.35623 114 ft 0 kts 167°
2026-04-24 20:14 55.94840 -3.35633 113 ft 7 kts 209°
2026-04-24 20:15 55.94816 -3.35665 115 ft 2 kts 210°
2026-04-24 20:15 55.94805 -3.35676 114 ft 1 kts 209°
2026-04-24 20:15 55.94799 -3.35682 115 ft 1 kts 208°
2026-04-24 20:15 55.94797 -3.35683 114 ft 1 kts 208°
2026-04-24 20:16 55.94795 -3.35685 115 ft 1 kts 208°
2026-04-24 20:16 55.94795 -3.35686 115 ft 0 kts 208°